Regional Weather Roundup
Issued by NWS

Home | Current Version | Previous Version | Graphics & Text | Print | Product List | Glossary On
Versions: 1 2 3 4 5 6 7 8 9 10 11 12 13 14 15 16 17 18 19 20 21 22 23 24 25 26 27 28 29 30 31 32 33 34 35 36 37 38 39 40 41 42 43 44 45 46 47 48 49 50
000
ASUS43 KMKX 211811
RWRWI

WISCONSIN REGIONAL WEATHER ROUNDUP
NATIONAL WEATHER SERVICE MILWAUKEE/SULLIVAN WI
1200 PM CST SUN DEC 21 2014

NOTE: "FAIR" INDICATES FEW OR NO CLOUDS BELOW 12,000 FEET WITH NO
SIGNIFICANT WEATHER AND/OR OBSTRUCTIONS TO VISIBILITY.

WIZ001-002-006>008-014>016-023>028-211900-
NORTHWEST WISCONSIN

CITY           SKY/WX    TMP DP  RH WIND       PRES   REMARKS
SUPERIOR ARPT  LGT SNOW  33  31  93 S3        29.85F
6HR MIN TEMP:  32; 6HR MAX TEMP:  33;

ASHLAND        LGT SNOW  34  30  85 S5        29.89F FOG     WCI  30
6HR MIN TEMP:  31; 6HR MAX TEMP:  34; 6HR PCP: TRACE;

HAYWARD        SNOW      32  29  88 S9        29.86F VSB 1/2 WCI  24
6HR MIN TEMP:  30; 6HR MAX TEMP:  32; 6HR PCP:  0.01;

SIREN          LGT SNOW  33  32  98 S8        29.84F WCI  25
6HR MIN TEMP:  32; 6HR MAX TEMP:  33; 6HR PCP:  0.01;

CUMBERLAND     SNOW      32  32 100 SE10      29.85F VSB 1/2 WCI  24
RICE LAKE      LGT SNOW  32  32  99 SE9       29.89F VSB 3/4 WCI  24
6HR MIN TEMP:  30; 6HR MAX TEMP:  32; 6HR PCP:  0.02;

CHETEK         LGT SNOW  32  31  98 SE9       29.88F VSB 3/4 WCI  24
6HR MIN TEMP:  30; 6HR MAX TEMP:  32; 6HR PCP:  0.02;

LADYSMITH      LGT SNOW  33  32  95 S12G18    29.91F WCI  24
6HR MIN TEMP:  31; 6HR MAX TEMP:  33;

EAU CLAIRE     LGT SNOW  33  31  92 SE12      29.89F FOG     WCI  24
6HR MIN TEMP:  31; 6HR MAX TEMP:  33; 6HR PCP: TRACE;

MENOMONIE      LGT SNOW  33  33  99 SE12      29.88F WCI  24
6HR MIN TEMP:  31; 6HR MAX TEMP:  33; 6HR PCP:  0.01;

NEW RICHMOND   LGT SNOW  33  33 100 SE9       29.84F WCI  25
6HR MIN TEMP:  31; 6HR MAX TEMP:  33; 6HR PCP:  0.02;

OSCEOLA        LGT SNOW  34  34 100 SE9       29.86F WCI  26
6HR MIN TEMP:  32; 6HR MAX TEMP:  34; 6HR PCP:  0.04;

$$

WIZ003>005-009-010-017-018-211900-
NORTH CENTRAL WISCONSIN

CITY           SKY/WX    TMP DP  RH WIND       PRES   REMARKS
MANITOWISH WTR CLOUDY    30  30 100 S14       29.91F FOG     WCI  19
6HR MIN TEMP:  27; 6HR MAX TEMP:  30;

ARBOR VITAE    LGT SNOW  32  30  92 S10G18    29.92F WCI  23
6HR MIN TEMP:  29; 6HR MAX TEMP:  32;

WOODRUFF       LGT SNOW  32  30  92 S10G18    29.92F WCI  23
6HR MIN TEMP:  29; 6HR MAX TEMP:  32;

RHINELANDER    CLOUDY    29  28  96 S9        29.95F FOG     WCI  20
6HR MIN TEMP:  26; 6HR MAX TEMP:  29;

EAGLE RIVER    CLOUDY    30  29  98 S7        29.94F FOG     WCI  23
6HR MIN TEMP:  27; 6HR MAX TEMP:  30;

LAND O LAKES   CLOUDY    31  29  94 S7        29.94F FOG     WCI  24
6HR MIN TEMP:  28; 6HR MAX TEMP:  31;

PHILLIPS       LGT SNOW  30  29  96 S13       29.90F WCI  20
6HR MIN TEMP:  28; 6HR MAX TEMP:  31;

TOMAHAWK       CLOUDY    30  29  94 CALM      29.94F FOG
6HR MIN TEMP:  28; 6HR MAX TEMP:  30;

MEDFORD        FOG       30  30  99 SE13G18   29.93F VSB 1/4 WCI  20
6HR MIN TEMP:  28; 6HR MAX TEMP:  31;

MERRILL        LGT SNOW  31  31  98 S6        29.96F WCI  25
6HR MIN TEMP:  28; 6HR MAX TEMP:  31;

$$

WIZ029-030-035-036-043>047-211900-
CENTRAL WISCONSIN

CITY           SKY/WX    TMP DP  RH WIND       PRES   REMARKS
WAUSAU         CLOUDY    31  30  96 S8        29.96F FOG     WCI  23
6HR MIN TEMP:  29; 6HR MAX TEMP:  31; 6HR PCP: TRACE;

MOSINEE        FOG       32  32 100 SE13      29.98F VSB 1   WCI  22
MARSHFIELD     SNOW      33  31  92 S12       29.95F VSB 1/4 WCI  24
6HR MIN TEMP:  29; 6HR MAX TEMP:  33; 6HR PCP: TRACE;

STEVENS POINT  FOG       31  31  99 S9        30.00F VSB 3/4 WCI  23
6HR MIN TEMP:  28; 6HR MAX TEMP:  31;

WAUPACA        CLOUDY    36  32  88 S8        30.04F FOG     WCI  29
6HR MIN TEMP:  32; 6HR MAX TEMP:  36;

WAUTOMA        CLOUDY    35  33  92 SE9       30.03F FOG     WCI  28
6HR MIN TEMP:  30; 6HR MAX TEMP:  35; 6HR PCP: TRACE;

WISC RAPIDS    CLOUDY    34  31  88 S9        29.99F FOG     WCI  27
6HR MIN TEMP:  30; 6HR MAX TEMP:  33; 6HR PCP: TRACE;

CAMP DOUGLAS   CLOUDY    34  34 100 SE8       29.97F FOG     WCI  27
$$

WIZ011>013-019>022-031-037>040-048>050-211900-
NORTHEAST WISCONSIN

CITY           SKY/WX    TMP DP  RH WIND       PRES   REMARKS
ANTIGO         FOG       29  29 100 SE10      29.97F VSB 1/2 WCI  20
6HR MIN TEMP:  26; 6HR MAX TEMP:  29;

SHAWANO        CLOUDY    35  32  88 S6        30.05F FOG     WCI  30
6HR MIN TEMP:  31; 6HR MAX TEMP:  35;

OCONTO         CLOUDY    33  32  95 S6        30.06F WCI  28
6HR MIN TEMP:  30; 6HR MAX TEMP:  33;

STURGEON BAY   CLOUDY    36  30  80 S12       30.09F WCI  27
6HR MIN TEMP:  30; 6HR MAX TEMP:  36;

GREEN BAY      CLOUDY    34  31  88 S10       30.07F FOG     WCI  26
6HR MIN TEMP:  31; 6HR MAX TEMP:  34; 6HR PCP: TRACE;

MANITOWOC      CLOUDY    37  33  85 S13       30.10F WCI  29
6HR MIN TEMP:  32; 6HR MAX TEMP:  37; 6HR PCP: TRACE;

APPLETON       CLOUDY    34  32  93 S12       30.06F FOG     WCI  25
CLINTONVILLE   CLOUDY    32  32 100 S9        30.04F FOG     WCI  24
OSHKOSH        CLOUDY    35  31  85 S9        30.06F FOG     WCI  28
6HR MIN TEMP:  31; 6HR MAX TEMP:  35;

$$

WIZ032>034-041-042-053>061-211900-
SOUTHWEST WISCONSIN

CITY           SKY/WX    TMP DP  RH WIND       PRES   REMARKS
LA CROSSE      CLOUDY    38  34  85 S12       29.93F FOG     WCI  30
6HR MIN TEMP:  34; 6HR MAX TEMP:  38;

SPARTA         CLOUDY    36  34  93 S10       29.96F FOG     WCI  28
6HR MIN TEMP:  32; 6HR MAX TEMP:  36;

VIROQUA        CLOUDY    34  34 100 S12G17    29.94F WCI  26
6HR MIN TEMP:  31; 6HR MAX TEMP:  34;

BOSCOBEL       CLOUDY    39  34  82 VRB5      30.00F HAZE
6HR MIN TEMP:  34; 6HR MAX TEMP:  39; 6HR PCP: TRACE;

PRAIRIE DU CHI CLOUDY    38  33  81 SE8G17    29.97F WCI  33
6HR MIN TEMP:  33; 6HR MAX TEMP:  38;

PLATTEVILLE    CLOUDY    36  34  90 S16G22    30.01F WCI  27
6HR MIN TEMP:  33; 6HR MAX TEMP:  37;

$$

WIZ056-057-062-063-064-067-068-211900-
SOUTH CENTRAL WISCONSIN

CITY           SKY/WX    TMP DP  RH WIND       PRES   REMARKS
REEDSBURG      CLOUDY    35  32  90 S8        30.00F FOG     WCI  29
6HR MIN TEMP:  30; 6HR MAX TEMP:  35;

BARABOO/DELLS  CLOUDY    35  32  90 S12G20    30.00F FOG     WCI  26
6HR MIN TEMP:  31; 6HR MAX TEMP:  35;

LONE ROCK      CLOUDY    41  32  70 S8        30.02F
6HR MIN TEMP:  36; 6HR MAX TEMP:  41;

MINERAL POINT  CLOUDY    36  34  93 S12G17    30.00F FOG     WCI  27
MADISON        CLOUDY    35  31  85 S15       30.04F FOG     WCI  25
6HR MIN TEMP:  32; 6HR MAX TEMP:  35; 6HR PCP: TRACE;

MIDDLETON      CLOUDY    36  34  93 S13       30.04F WCI  27
6HR MIN TEMP:  33; 6HR MAX TEMP:  36;

WATERTOWN      CLOUDY    34  32  94 S12       30.06F FOG     WCI  25
6HR MIN TEMP:  31; 6HR MAX TEMP:  34;

MONROE         CLOUDY    34  32  93 S15       30.04F FOG     WCI  24
JANESVILLE     CLOUDY    36  34  93 S10       30.08F FOG     WCI  28
$$

WIZ051-052-058>065-066-070>072-211900-
SOUTHEAST WISCONSIN

CITY           SKY/WX    TMP DP  RH WIND       PRES   REMARKS
MILWAUKEE      CLOUDY    36  29  75 S8        30.11F WCI  30
6HR MIN TEMP:  32; 6HR MAX TEMP:  36; 6HR PCP: TRACE;

WAUKESHA       CLOUDY    32  30  93 S9        30.11F FOG     WCI  24
MILWAUKEE/TIMM CLOUDY    36  28  75 S9        30.11F WCI  29
RACINE         CLOUDY    36  29  75 S10       30.14F WCI  28
6HR MIN TEMP:  33; 6HR MAX TEMP:  36;

BURLINGTON     CLOUDY    33  29  86 S7        30.11F WCI  27
6HR MIN TEMP:  30; 6HR MAX TEMP:  33;

KENOSHA        CLOUDY    36  29  75 S12       30.12F WCI  28
6HR MIN TEMP:  32; 6HR MAX TEMP:  36;

FOND DU LAC    CLOUDY    35  31  85 S12       30.06F WCI  27
6HR MIN TEMP:  31; 6HR MAX TEMP:  35; 6HR PCP: TRACE;

SHEBOYGAN      CLOUDY    35  30  82 S12       30.09F WCI  27
6HR MIN TEMP:  31; 6HR MAX TEMP:  35;

WEST BEND      CLOUDY    34  30  86 S8        30.08F WCI  27
JUNEAU         CLOUDY    34  31  90 S13       30.07F FOG     WCI  25
6HR MIN TEMP:  31; 6HR MAX TEMP:  34;

$$

LSZ147-162-211900-
LAKE SUPERIOR

STATION/POSITION TIME  TEMP    WIND        PRES    WAVE
                       AIR SEA DIR/SP/G            HT/PER
                 (UTC) (F)     (DEG/KT/KT) (MB)    (FT/S)
DEVILS ISLAND    1800   34     160/  5/  7 1013.2F
PORT WING        1700   34     160/  5/  6 1013.2F
SAXON HARBOR     1700   36     190/  5/  9 1013.5F
$$

LMZ867-665-643>646-211900-
LAKE MICHIGAN

STATION/POSITION TIME  TEMP    WIND        PRES    WAVE
                       AIR SEA DIR/SP/G            HT/PER



USA.gov is the U.S. government's official web portal to all federal, state and local government web resources and services.